Location: Kernascl�den
(48.0062°N, 3.3198°W)
Time: 11:34:21
(UTC+00:00)

Cosmos 990 Rocket - Pass Details

Date: 21 January 2021
Orbit: 747 x 768 km, 74.0° (Epoch: 07 March)

Event Time Altitude Azimuth Distance (km) Brightness Sun altitude
Rises 18:49:32 0° 184° (S) 3,212 7.4 -18.6°
Reaches altitude 10° 18:51:58 10° 178° (S) 2,288 6.5 -19.0°
Maximum altitude 18:56:56 48° 105° (ESE) 986 4.1 -19.8°
Enters shadow 18:58:10 40° 66° (ENE) 1,111 4.3 -20.0°
